| time (UTC) | temp F | wind direction | speed MPH | gust MPH | rain 1hr in | rain 24hr in | rain mn in | humidity % | barometer mb |
| 20260507111526 | 91 | 8 | 15.0 | 26.0 | 0.00 | 0.00 | 0.00 | 26 | 1009.9 |
| 20260507111023 | 91 | 0 | 9.0 | 26.0 | 0.00 | 0.00 | 0.00 | 27 | 1009.8 |
| 20260507110519 | 91 | 324 | 13.0 | 30.0 | 0.00 | 0.00 | 0.00 | 27 | 1010.1 |
| 20260507110015 | 92 | 342 | 11.0 | 24.0 | 0.00 | 0.00 | 0.00 | 26 | 1010.1 |
| 20260507105513 | 92 | 5 | 16.0 | 25.0 | 0.00 | 0.00 | 0.00 | 25 | 1010.1 |
| 20260507105008 | 92 | 2 | 13.0 | 23.0 | 0.00 | 0.00 | 0.00 | 25 | 1010.2 |
| 20260507104507 | 93 | 0 | 11.0 | 24.0 | 0.00 | 0.00 | 0.00 | 25 | 1010.0 |
| 20260507104002 | 93 | 337 | 14.0 | 21.0 | 0.00 | 0.00 | 0.00 | 25 | 1009.9 |
| 20260507103459 | 92 | 0 | 11.0 | 17.0 | 0.00 | 0.00 | 0.00 | 25 | 1010.2 |
| 20260507102955 | 92 | 359 | 10.0 | 18.0 | 0.00 | 0.00 | 0.00 | 25 | 1010.4 |
| 20260507102452 | 92 | 14 | 7.0 | 17.0 | 0.00 | 0.00 | 0.00 | 26 | 1010.8 |
| 20260507101948 | 92 | 27 | 9.0 | 15.0 | 0.00 | 0.00 | 0.00 | 26 | 1011.2 |
| 20260507101443 | 92 | 349 | 8.0 | 21.0 | 0.00 | 0.00 | 0.00 | 26 | 1011.2 |
| 20260507100940 | 91 | 328 | 18.0 | 25.0 | 0.00 | 0.00 | 0.00 | 26 | 1011.9 |
| 20260507100438 | 91 | 351 | 14.0 | 21.0 | 0.00 | 0.00 | 0.00 | 27 | 1011.8 |
| 20260507095936 | 91 | 350 | 7.0 | 18.0 | 0.00 | 0.00 | 0.00 | 27 | 1011.7 |
| 20260507095433 | 92 | 294 | 5.0 | 11.0 | 0.00 | 0.00 | 0.00 | 27 | 1012.0 |
| 20260507094930 | 91 | 0 | 8.0 | 16.0 | 0.00 | 0.00 | 0.00 | 26 | 1011.9 |
| 20260507094426 | 91 | 326 | 9.0 | 15.0 | 0.00 | 0.00 | 0.00 | 26 | 1011.6 |
| 20260507093923 | 91 | 1 | 7.0 | 17.0 | 0.00 | 0.00 | 0.00 | 27 | 1011.7 |
| 20260507093421 | 91 | 344 | 9.0 | 19.0 | 0.00 | 0.00 | 0.00 | 26 | 1011.8 |
| 20260507092919 | 92 | 20 | 12.0 | 19.0 | 0.00 | 0.00 | 0.00 | 26 | 1011.9 |
| 20260507092415 | 92 | 357 | 9.0 | 20.0 | 0.00 | 0.00 | 0.00 | 26 | 1011.6 |
| 20260507091912 | 92 | 358 | 8.0 | 18.0 | 0.00 | 0.00 | 0.00 | 27 | 1011.7 |
| 20260507091408 | 92 | 39 | 6.0 | 17.0 | 0.00 | 0.00 | 0.00 | 26 | 1011.5 |
| 20260507090904 | 92 | 359 | 6.0 | 14.0 | 0.00 | 0.00 | 0.00 | 27 | 1011.8 |
| 20260507090400 | 92 | 341 | 14.0 | 21.0 | 0.00 | 0.00 | 0.00 | 27 | 1011.7 |
| 20260507085857 | 92 | 302 | 6.0 | 11.0 | 0.00 | 0.00 | 0.00 | 27 | 1012.0 |
| 20260507085354 | 92 | 337 | 3.0 | 15.0 | 0.00 | 0.00 | 0.00 | 28 | 1012.3 |
| 20260507084851 | 91 | 348 | 4.0 | 11.0 | 0.00 | 0.00 | 0.00 | 30 | 1011.9 |
| 20260507084348 | 90 | 9 | 8.0 | 18.0 | 0.00 | 0.00 | 0.00 | 29 | 1011.0 |
| 20260507083845 | 91 | 6 | 8.0 | 20.0 | 0.00 | 0.00 | 0.00 | 28 | 1011.0 |
| 20260507083341 | 90 | 13 | 10.0 | 19.0 | 0.00 | 0.00 | 0.00 | 28 | 1011.1 |
| 20260507082838 | 90 | 40 | 15.0 | 16.0 | 0.00 | 0.00 | 0.00 | 29 | 1010.9 |
| 20260507082333 | 91 | 42 | 10.0 | 13.0 | 0.00 | 0.00 | 0.00 | 29 | 1010.8 |
| 20260507081831 | 90 | 9 | 7.0 | 19.0 | 0.00 | 0.00 | 0.00 | 30 | 1010.7 |
| 20260507081327 | 89 | 26 | 8.0 | 17.0 | 0.00 | 0.00 | 0.00 | 31 | 1010.5 |
| 20260507080824 | 90 | 25 | 7.0 | 15.0 | 0.00 | 0.00 | 0.00 | 32 | 1010.3 |
| 20260507080320 | 90 | 29 | 8.0 | 16.0 | 0.00 | 0.00 | 0.00 | 32 | 1010.1 |
| 20260507075815 | 89 | 31 | 8.0 | 16.0 | 0.00 | 0.00 | 0.00 | 33 | 1010.4 |
| 20260507075312 | 89 | 61 | 6.0 | 18.0 | 0.00 | 0.00 | 0.00 | 34 | 1010.3 |
| 20260507074809 | 89 | 0 | 4.0 | 11.0 | 0.00 | 0.00 | 0.00 | 33 | 1010.6 |
| 20260507074306 | 89 | 73 | 7.0 | 11.0 | 0.00 | 0.00 | 0.00 | 34 | 1010.6 |
| 20260507073803 | 88 | 16 | 10.0 | 14.0 | 0.00 | 0.00 | 0.00 | 34 | 1010.4 |
| 20260507073259 | 87 | 357 | 5.0 | 17.0 | 0.00 | 0.00 | 0.00 | 35 | 1010.7 |
| 20260507072757 | 87 | 8 | 17.0 | 17.0 | 0.00 | 0.00 | 0.00 | 35 | 1010.9 |
| 20260507072254 | 86 | 32 | 7.0 | 16.0 | 0.00 | 0.00 | 0.00 | 35 | 1011.1 |
| 20260507071752 | 87 | 12 | 5.0 | 12.0 | 0.00 | 0.00 | 0.00 | 35 | 1010.8 |
| 20260507071248 | 86 | 12 | 5.0 | 14.0 | 0.00 | 0.00 | 0.00 | 36 | 1010.9 |
| 20260507070745 | 85 | 2 | 13.0 | 18.0 | 0.00 | 0.00 | 0.00 | 35 | 1011.0 |
| 20260507070242 | 85 | 46 | 13.0 | 18.0 | 0.00 | 0.00 | 0.00 | 35 | 1011.1 |
| 20260507065738 | 85 | 37 | 5.0 | 21.0 | 0.00 | 0.00 | 0.00 | 37 | 1010.8 |
| 20260507065235 | 85 | 80 | 4.0 | 14.0 | 0.00 | 0.00 | 0.00 | 36 | 1011.1 |
| 20260507064732 | 84 | 3 | 12.0 | 13.0 | 0.00 | 0.00 | 0.00 | 37 | 1010.9 |
| 20260507064232 | 84 | 346 | 10.0 | 11.0 | 0.00 | 0.00 | 0.00 | 37 | 1011.2 |
| 20260507063728 | 84 | 26 | 8.0 | 16.0 | 0.00 | 0.00 | 0.00 | 39 | 1011.1 |
| 20260507063225 | 83 | 15 | 6.0 | 16.0 | 0.00 | 0.00 | 0.00 | 39 | 1011.2 |
| 20260507062722 | 83 | 332 | 11.0 | 15.0 | 0.00 | 0.00 | 0.00 | 38 | 1011.1 |
| 20260507062220 | 83 | 19 | 12.0 | 15.0 | 0.00 | 0.00 | 0.00 | 38 | 1011.1 |
| 20260507061717 | 82 | 12 | 9.0 | 17.0 | 0.00 | 0.00 | 0.00 | 38 | 1011.0 |
| 20260507061215 | 83 | 5 | 7.0 | 13.0 | 0.00 | 0.00 | 0.00 | 38 | 1011.1 |
| 20260507060713 | 83 | 10 | 3.0 | 14.0 | 0.00 | 0.00 | 0.00 | 39 | 1011.3 |
| 20260507060209 | 82 | 341 | 9.0 | 17.0 | 0.00 | 0.00 | 0.00 | 39 | 1011.0 |
| 20260507055705 | 81 | 29 | 9.0 | 14.0 | 0.00 | 0.00 | 0.00 | 39 | 1011.1 |
| 20260507055201 | 81 | 10 | 17.0 | 19.0 | 0.00 | 0.00 | 0.00 | 39 | 1011.1 |
| 20260507054657 | 81 | 359 | 10.0 | 15.0 | 0.00 | 0.00 | 0.00 | 40 | 1011.1 |
| 20260507054154 | 81 | 31 | 7.0 | 15.0 | 0.00 | 0.00 | 0.00 | 40 | 1010.7 |
| 20260507053652 | 80 | 21 | 14.0 | 18.0 | 0.00 | 0.00 | 0.00 | 40 | 1010.5 |
| 20260507053150 | 81 | 41 | 8.0 | 14.0 | 0.00 | 0.00 | 0.00 | 40 | 1010.5 |
| 20260507052648 | 80 | 37 | 5.0 | 12.0 | 0.00 | 0.00 | 0.00 | 41 | 1010.6 |
| 20260507052144 | 80 | 33 | 5.0 | 9.0 | 0.00 | 0.00 | 0.00 | 41 | 1010.7 |
| 20260507051642 | 79 | 77 | 5.0 | 13.0 | 0.00 | 0.00 | 0.00 | 41 | 1010.5 |
| 20260507051138 | 78 | 49 | 13.0 | 17.0 | 0.00 | 0.00 | 0.00 | 41 | 1010.3 |
| 20260507050635 | 78 | 46 | 17.0 | 17.0 | 0.00 | 0.00 | 0.00 | 41 | 1010.3 |
| 20260507050132 | 78 | 16 | 7.0 | 17.0 | 0.00 | 0.00 | 0.00 | 41 | 1010.6 |
| 20260507045629 | 78 | 30 | 4.0 | 11.0 | 0.00 | 0.00 | 0.00 | 42 | 1010.5 |
| 20260507045125 | 78 | 58 | 7.0 | 16.0 | 0.00 | 0.00 | 0.00 | 41 | 1010.3 |
| 20260507044622 | 78 | 19 | 8.0 | 17.0 | 0.00 | 0.00 | 0.00 | 42 | 1010.3 |
| 20260507044119 | 78 | 44 | 9.0 | 14.0 | 0.00 | 0.00 | 0.00 | 41 | 1010.4 |
| 20260507043615 | 79 | 33 | 15.0 | 21.0 | 0.00 | 0.00 | 0.00 | 41 | 1010.6 |
| 20260507043113 | 78 | 52 | 8.0 | 18.0 | 0.00 | 0.00 | 0.00 | 42 | 1010.5 |
| 20260507042608 | 78 | 0 | 6.0 | 15.0 | 0.00 | 0.00 | 0.00 | 43 | 1010.5 |
| 20260507042104 | 78 | 26 | 6.0 | 13.0 | 0.00 | 0.00 | 0.00 | 43 | 1010.3 |
| 20260507041601 | 77 | 48 | 10.0 | 17.0 | 0.00 | 0.00 | 0.00 | 43 | 1010.3 |
| 20260507041058 | 78 | 19 | 11.0 | 15.0 | 0.00 | 0.00 | 0.00 | 44 | 1010.2 |
| 20260507040554 | 77 | 27 | 5.0 | 20.0 | 0.00 | 0.00 | 0.00 | 44 | 1010.0 |
| 20260507040051 | 77 | 0 | 7.0 | 13.0 | 0.00 | 0.00 | 0.00 | 44 | 1010.1 |
| 20260507035547 | 77 | 59 | 8.0 | 14.0 | 0.00 | 0.00 | 0.00 | 44 | 1010.2 |
| 20260507035043 | 77 | 12 | 7.0 | 15.0 | 0.00 | 0.00 | 0.00 | 44 | 1010.2 |
| 20260507034540 | 77 | 57 | 4.0 | 13.0 | 0.00 | 0.00 | 0.00 | 43 | 1009.9 |
| 20260507034038 | 77 | 30 | 6.0 | 18.0 | 0.00 | 0.00 | 0.00 | 43 | 1010.1 |
| 20260507033535 | 77 | 42 | 9.0 | 17.0 | 0.00 | 0.00 | 0.00 | 43 | 1009.9 |
| 20260507033033 | 77 | 38 | 8.0 | 16.0 | 0.00 | 0.00 | 0.00 | 43 | 1009.9 |
| 20260507032530 | 77 | 15 | 12.0 | 21.0 | 0.00 | 0.00 | 0.00 | 43 | 1009.8 |
| 20260507032026 | 77 | 344 | 9.0 | 16.0 | 0.00 | 0.00 | 0.00 | 43 | 1009.8 |
| 20260507031522 | 77 | 11 | 6.0 | 19.0 | 0.00 | 0.00 | 0.00 | 44 | 1009.9 |
| 20260507031020 | 77 | 30 | 7.0 | 17.0 | 0.00 | 0.00 | 0.00 | 44 | 1009.8 |
| 20260507030516 | 77 | 29 | 7.0 | 16.0 | 0.00 | 0.00 | 0.00 | 44 | 1009.8 |
| 20260507030014 | 77 | 49 | 14.0 | 17.0 | 0.00 | 0.00 | 0.00 | 43 | 1009.9 |
| 20260507025511 | 76 | 55 | 4.0 | 18.0 | 0.00 | 0.00 | 0.00 | 44 | 1009.9 |
| 20260507025008 | 77 | 48 | 8.0 | 18.0 | 0.00 | 0.00 | 0.00 | 44 | 1010.1 |
| 20260507024506 | 77 | 20 | 8.0 | 18.0 | 0.00 | 0.00 | 0.00 | 43 | 1010.0 |
| 20260507024002 | 77 | 359 | 6.0 | 18.0 | 0.00 | 0.00 | 0.00 | 43 | 1009.9 |
| 20260507023458 | 77 | 69 | 3.0 | 17.0 | 0.00 | 0.00 | 0.00 | 43 | 1009.7 |
| 20260507022955 | 77 | 17 | 6.0 | 17.0 | 0.00 | 0.00 | 0.00 | 43 | 1009.7 |
| 20260507022453 | 77 | 76 | 5.0 | 16.0 | 0.00 | 0.00 | 0.00 | 43 | 1009.6 |
| 20260507021948 | 77 | 26 | 7.0 | 22.0 | 0.00 | 0.00 | 0.00 | 42 | 1009.7 |
| 20260507021443 | 78 | 27 | 14.0 | 14.0 | 0.00 | 0.00 | 0.00 | 42 | 1009.8 |
| 20260507020941 | 78 | 48 | 9.0 | 18.0 | 0.00 | 0.00 | 0.00 | 42 | 1009.9 |
| 20260507020438 | 78 | 357 | 7.0 | 16.0 | 0.00 | 0.00 | 0.00 | 42 | 1009.8 |
| 20260507015935 | 78 | 0 | 11.0 | 17.0 | 0.00 | 0.00 | 0.00 | 42 | 1009.8 |
| 20260507015433 | 78 | 23 | 6.0 | 15.0 | 0.00 | 0.00 | 0.00 | 41 | 1009.6 |
| 20260507014930 | 78 | 330 | 6.0 | 20.0 | 0.00 | 0.00 | 0.00 | 41 | 1009.7 |
| 20260507014427 | 78 | 3 | 9.0 | 18.0 | 0.00 | 0.00 | 0.00 | 41 | 1009.6 |
| 20260507013923 | 78 | 35 | 8.0 | 16.0 | 0.00 | 0.00 | 0.00 | 41 | 1009.7 |
| 20260507013420 | 78 | 7 | 13.0 | 16.0 | 0.00 | 0.00 | 0.00 | 41 | 1009.5 |
| 20260507012917 | 78 | 21 | 10.0 | 14.0 | 0.00 | 0.00 | 0.00 | 40 | 1009.6 |
| 20260507012414 | 78 | 8 | 11.0 | 18.0 | 0.00 | 0.00 | 0.00 | 41 | 1009.5 |
| 20260507011910 | 79 | 27 | 10.0 | 16.0 | 0.00 | 0.00 | 0.00 | 40 | 1009.3 |
| 20260507011407 | 79 | 47 | 7.0 | 17.0 | 0.00 | 0.00 | 0.00 | 40 | 1009.4 |
| 20260507010907 | 79 | 32 | 7.0 | 18.0 | 0.00 | 0.00 | 0.00 | 39 | 1009.5 |
| 20260507010403 | 79 | 15 | 5.0 | 16.0 | 0.00 | 0.00 | 0.00 | 39 | 1009.6 |
| 20260507005900 | 80 | 36 | 4.0 | 15.0 | 0.00 | 0.00 | 0.00 | 39 | 1009.6 |
| 20260507005357 | 79 | 13 | 5.0 | 16.0 | 0.00 | 0.00 | 0.00 | 39 | 1009.3 |
| 20260507004854 | 80 | 30 | 15.0 | 15.0 | 0.00 | 0.00 | 0.00 | 38 | 1009.3 |
| 20260507004351 | 80 | 344 | 4.0 | 18.0 | 0.00 | 0.00 | 0.00 | 38 | 1009.2 |
| 20260507003850 | 80 | 13 | 9.0 | 20.0 | 0.00 | 0.00 | 0.00 | 38 | 1009.0 |
| 20260507003343 | 80 | 25 | 13.0 | 17.0 | 0.00 | 0.00 | 0.00 | 38 | 1009.2 |
| 20260507002839 | 80 | 13 | 5.0 | 13.0 | 0.00 | 0.00 | 0.00 | 38 | 1009.0 |
| 20260507002335 | 80 | 0 | 5.0 | 18.0 | 0.00 | 0.00 | 0.00 | 38 | 1009.3 |
| 20260507001832 | 81 | 22 | 5.0 | 11.0 | 0.00 | 0.00 | 0.00 | 37 | 1009.2 |
| 20260507001329 | 81 | 30 | 4.0 | 10.0 | 0.00 | 0.00 | 0.00 | 37 | 1009.2 |
| 20260507000825 | 81 | 7 | 14.0 | 14.0 | 0.00 | 0.00 | 0.00 | 37 | 1009.3 |
| 20260507000321 | 81 | 28 | 11.0 | 14.0 | 0.00 | 0.00 | 0.00 | 36 | 1009.1 |
| 20260506235818 | 82 | 24 | 2.0 | 14.0 | 0.00 | 0.00 | 0.00 | 36 | 1009.3 |
| 20260506235314 | 81 | 25 | 9.0 | 17.0 | 0.00 | 0.00 | 0.00 | 36 | 1009.2 |
| 20260506234811 | 82 | 6 | 10.0 | 13.0 | 0.00 | 0.00 | 0.00 | 36 | 1009.4 |
| 20260506234308 | 82 | 29 | 7.0 | 17.0 | 0.00 | 0.00 | 0.00 | 36 | 1009.0 |
| 20260506233806 | 82 | 3 | 13.0 | 16.0 | 0.00 | 0.00 | 0.00 | 35 | 1009.0 |
| 20260506233301 | 82 | 11 | 5.0 | 12.0 | 0.00 | 0.00 | 0.00 | 36 | 1009.3 |
| 20260506232759 | 83 | 22 | 16.0 | 19.0 | 0.00 | 0.00 | 0.00 | 36 | 1009.3 |
| 20260506232254 | 83 | 107 | 3.0 | 16.0 | 0.00 | 0.00 | 0.00 | 36 | 1009.2 |
| 20260506231751 | 83 | 50 | 7.0 | 12.0 | 0.00 | 0.00 | 0.00 | 35 | 1009.1 |
| 20260506231249 | 83 | 22 | 5.0 | 13.0 | 0.00 | 0.00 | 0.00 | 35 | 1009.2 |
| 20260506230746 | 83 | 34 | 11.0 | 11.0 | 0.00 | 0.00 | 0.00 | 35 | 1009.3 |
| 20260506230243 | 83 | 8 | 10.0 | 12.0 | 0.00 | 0.00 | 0.00 | 35 | 1009.3 |
| 20260506225739 | 83 | 52 | 4.0 | 13.0 | 0.00 | 0.00 | 0.00 | 35 | 1009.3 |
| 20260506225236 | 84 | 8 | 5.0 | 15.0 | 0.00 | 0.00 | 0.00 | 34 | 1009.2 |
| 20260506224732 | 84 | 22 | 4.0 | 13.0 | 0.00 | 0.00 | 0.00 | 34 | 1009.1 |
| 20260506224230 | 84 | 20 | 7.0 | 13.0 | 0.00 | 0.00 | 0.00 | 33 | 1009.3 |
| 20260506223726 | 84 | 24 | 10.0 | 13.0 | 0.00 | 0.00 | 0.00 | 33 | 1009.3 |
| 20260506223222 | 84 | 9 | 10.0 | 10.0 | 0.00 | 0.00 | 0.00 | 33 | 1009.5 |
| 20260506222719 | 84 | 11 | 4.0 | 15.0 | 0.00 | 0.00 | 0.00 | 33 | 1009.7 |
| 20260506222214 | 84 | 13 | 7.0 | 9.0 | 0.00 | 0.00 | 0.00 | 33 | 1009.4 |
| 20260506221713 | 84 | 315 | 3.0 | 11.0 | 0.00 | 0.00 | 0.00 | 33 | 1009.3 |
| 20260506221211 | 84 | 8 | 10.0 | 16.0 | 0.00 | 0.00 | 0.00 | 32 | 1009.4 |
| 20260506220707 | 84 | 1 | 12.0 | 15.0 | 0.00 | 0.00 | 0.00 | 32 | 1009.7 |
| 20260506220202 | 84 | 353 | 6.0 | 14.0 | 0.00 | 0.00 | 0.00 | 32 | 1009.4 |
| 20260506215659 | 84 | 326 | 5.0 | 15.0 | 0.00 | 0.00 | 0.00 | 32 | 1009.6 |
| 20260506215154 | 84 | 14 | 5.0 | 9.0 | 0.00 | 0.00 | 0.00 | 33 | 1009.6 |
| 20260506214651 | 85 | 1 | 8.0 | 21.0 | 0.00 | 0.00 | 0.00 | 32 | 1009.4 |
| 20260506214149 | 85 | 307 | 6.0 | 11.0 | 0.00 | 0.00 | 0.00 | 32 | 1009.5 |
| 20260506213647 | 85 | 332 | 5.0 | 10.0 | 0.00 | 0.00 | 0.00 | 32 | 1009.3 |
| 20260506213144 | 85 | 351 | 4.0 | 14.0 | 0.00 | 0.00 | 0.00 | 32 | 1009.4 |
| 20260506212641 | 85 | 55 | 11.0 | 16.0 | 0.00 | 0.00 | 0.00 | 32 | 1009.5 |
| 20260506212136 | 85 | 356 | 7.0 | 10.0 | 0.00 | 0.00 | 0.00 | 32 | 1009.4 |
| 20260506211632 | 85 | 13 | 15.0 | 15.0 | 0.00 | 0.00 | 0.00 | 32 | 1009.5 |
| 20260506211129 | 85 | 340 | 10.0 | 17.0 | 0.00 | 0.00 | 0.00 | 32 | 1009.4 |
| 20260506210626 | 85 | 6 | 8.0 | 17.0 | 0.00 | 0.00 | 0.00 | 31 | 1009.6 |
| 20260506210122 | 85 | 349 | 9.0 | 17.0 | 0.00 | 0.00 | 0.00 | 31 | 1009.7 |
| 20260506205619 | 85 | 352 | 5.0 | 14.0 | 0.00 | 0.00 | 0.00 | 31 | 1009.5 |
| 20260506205114 | 85 | 34 | 14.0 | 17.0 | 0.00 | 0.00 | 0.00 | 31 | 1009.7 |
| 20260506204612 | 85 | 343 | 9.0 | 21.0 | 0.00 | 0.00 | 0.00 | 31 | 1009.7 |
| 20260506204109 | 85 | 327 | 17.0 | 19.0 | 0.00 | 0.00 | 0.00 | 30 | 1009.4 |
| 20260506203608 | 86 | 22 | 5.0 | 16.0 | 0.00 | 0.00 | 0.00 | 29 | 1009.6 |
| 20260506203103 | 86 | 324 | 6.0 | 22.0 | 0.00 | 0.00 | 0.00 | 29 | 1009.8 |
| 20260506202601 | 86 | 19 | 9.0 | 15.0 | 0.00 | 0.00 | 0.00 | 29 | 1009.8 |
| 20260506202057 | 86 | 356 | 11.0 | 14.0 | 0.00 | 0.00 | 0.00 | 28 | 1009.8 |
| 20260506201555 | 86 | 4 | 8.0 | 19.0 | 0.00 | 0.00 | 0.00 | 28 | 1010.0 |
| 20260506201051 | 86 | 335 | 9.0 | 16.0 | 0.00 | 0.00 | 0.00 | 28 | 1009.9 |
| 20260506200548 | 86 | 8 | 7.0 | 15.0 | 0.00 | 0.00 | 0.00 | 27 | 1009.5 |
| 20260506200045 | 87 | 24 | 8.0 | 15.0 | 0.00 | 0.00 | 0.00 | 27 | 1009.9 |
| 20260506195541 | 87 | 348 | 6.0 | 17.0 | 0.00 | 0.00 | 0.00 | 27 | 1009.8 |
| 20260506195038 | 87 | 344 | 9.0 | 16.0 | 0.00 | 0.00 | 0.00 | 27 | 1009.9 |
| 20260506194535 | 87 | 39 | 13.0 | 23.0 | 0.00 | 0.00 | 0.00 | 26 | 1010.2 |
| 20260506194032 | 87 | 357 | 7.0 | 18.0 | 0.00 | 0.00 | 0.00 | 27 | 1010.0 |
| 20260506193529 | 87 | 6 | 14.0 | 18.0 | 0.00 | 0.00 | 0.00 | 27 | 1010.2 |
| 20260506193026 | 87 | 359 | 11.0 | 15.0 | 0.00 | 0.00 | 0.00 | 27 | 1010.1 |
| 20260506192523 | 88 | 323 | 6.0 | 17.0 | 0.00 | 0.00 | 0.00 | 26 | 1010.2 |
| 20260506192018 | 88 | 12 | 9.0 | 15.0 | 0.00 | 0.00 | 0.00 | 26 | 1009.9 |
| 20260506191516 | 88 | 358 | 7.0 | 15.0 | 0.00 | 0.00 | 0.00 | 25 | 1010.0 |
| 20260506191012 | 88 | 23 | 13.0 | 17.0 | 0.00 | 0.00 | 0.00 | 25 | 1010.0 |
| 20260506190509 | 88 | 353 | 12.0 | 16.0 | 0.00 | 0.00 | 0.00 | 25 | 1010.3 |
| 20260506190006 | 88 | 14 | 9.0 | 17.0 | 0.00 | 0.00 | 0.00 | 25 | 1010.1 |
| 20260506185503 | 88 | 7 | 10.0 | 17.0 | 0.00 | 0.00 | 0.00 | 25 | 1009.9 |
| 20260506185000 | 88 | 0 | 10.0 | 18.0 | 0.00 | 0.00 | 0.00 | 26 | 1009.8 |
| 20260506184457 | 88 | 13 | 14.0 | 17.0 | 0.00 | 0.00 | 0.00 | 25 | 1009.9 |
| 20260506183954 | 89 | 359 | 13.0 | 16.0 | 0.00 | 0.00 | 0.00 | 25 | 1010.0 |
| 20260506183449 | 89 | 327 | 9.0 | 19.0 | 0.00 | 0.00 | 0.00 | 25 | 1009.7 |
| 20260506182947 | 89 | 351 | 7.0 | 21.0 | 0.00 | 0.00 | 0.00 | 25 | 1009.6 |
| 20260506182444 | 89 | 352 | 8.0 | 16.0 | 0.00 | 0.00 | 0.00 | 25 | 1009.8 |
| 20260506181941 | 89 | 50 | 8.0 | 17.0 | 0.00 | 0.00 | 0.00 | 24 | 1009.7 |
| 20260506181439 | 90 | 359 | 9.0 | 13.0 | 0.00 | 0.00 | 0.00 | 24 | 1009.6 |
| 20260506180936 | 90 | 12 | 10.0 | 14.0 | 0.00 | 0.00 | 0.00 | 23 | 1009.6 |
| 20260506180432 | 90 | 3 | 7.0 | 11.0 | 0.00 | 0.00 | 0.00 | 24 | 1009.6 |
| 20260506175929 | 90 | 16 | 11.0 | 13.0 | 0.00 | 0.00 | 0.00 | 24 | 1009.5 |
| 20260506175426 | 90 | 0 | 4.0 | 13.0 | 0.00 | 0.00 | 0.00 | 24 | 1009.6 |
| 20260506174922 | 90 | 354 | 9.0 | 15.0 | 0.00 | 0.00 | 0.00 | 24 | 1009.7 |
| 20260506174420 | 91 | 352 | 9.0 | 11.0 | 0.00 | 0.00 | 0.00 | 23 | 1009.5 |
| 20260506173917 | 90 | 57 | 13.0 | 15.0 | 0.00 | 0.00 | 0.00 | 23 | 1009.6 |
| 20260506173414 | 91 | 352 | 5.0 | 13.0 | 0.00 | 0.00 | 0.00 | 23 | 1009.7 |
| 20260506172911 | 91 | 4 | 6.0 | 12.0 | 0.00 | 0.00 | 0.00 | 23 | 1009.8 |
| 20260506172408 | 91 | 327 | 7.0 | 11.0 | 0.00 | 0.00 | 0.00 | 23 | 1009.6 |
| 20260506171905 | 91 | 336 | 7.0 | 16.0 | 0.00 | 0.00 | 0.00 | 23 | 1009.4 |
| 20260506171402 | 91 | 7 | 12.0 | 16.0 | 0.00 | 0.00 | 0.00 | 23 | 1009.4 |
| 20260506170900 | 91 | 4 | 8.0 | 10.0 | 0.00 | 0.00 | 0.00 | 24 | 1009.4 |
| 20260506170355 | 91 | 7 | 3.0 | 10.0 | 0.00 | 0.00 | 0.00 | 24 | 1009.3 |
| 20260506165855 | 91 | 341 | 4.0 | 9.0 | 0.00 | 0.00 | 0.00 | 25 | 1009.0 |
| 20260506165353 | 91 | 6 | 3.0 | 12.0 | 0.00 | 0.00 | 0.00 | 25 | 1009.1 |
| 20260506164849 | 91 | 1 | 5.0 | 12.0 | 0.00 | 0.00 | 0.00 | 24 | 1009.1 |
| 20260506164345 | 91 | 352 | 3.0 | 13.0 | 0.00 | 0.00 | 0.00 | 24 | 1009.0 |
| 20260506163843 | 91 | 9 | 5.0 | 8.0 | 0.00 | 0.00 | 0.00 | 24 | 1009.1 |
| 20260506163337 | 91 | 343 | 3.0 | 11.0 | 0.00 | 0.00 | 0.00 | 24 | 1008.8 |
| 20260506162833 | 91 | 52 | 4.0 | 9.0 | 0.00 | 0.00 | 0.00 | 25 | 1008.9 |
| 20260506162331 | 91 | 34 | 6.0 | 8.0 | 0.00 | 0.00 | 0.00 | 25 | 1008.9 |
| 20260506161829 | 91 | 4 | 4.0 | 8.0 | 0.00 | 0.00 | 0.00 | 26 | 1008.7 |
| 20260506161326 | 91 | 0 | 5.0 | 11.0 | 0.00 | 0.00 | 0.00 | 26 | 1008.7 |
| 20260506160824 | 91 | 12 | 4.0 | 7.0 | 0.00 | 0.00 | 0.00 | 27 | 1008.7 |
| 20260506160320 | 91 | 344 | 3.0 | 9.0 | 0.00 | 0.00 | 0.00 | 27 | 1008.8 |
| 20260506155819 | 91 | 2 | 3.0 | 8.0 | 0.00 | 0.00 | 0.00 | 27 | 1008.7 |
| 20260506155315 | 91 | 11 | 3.0 | 8.0 | 0.00 | 0.00 | 0.00 | 27 | 1008.8 |
| 20260506153427 | 91 | 355 | 5.0 | 8.0 | 0.00 | 0.00 | 0.00 | 27 | 1008.5 |
| 20260506152925 | 91 | 14 | 10.0 | 13.0 | 0.00 | 0.00 | 0.00 | 27 | 1008.3 |
| 20260506152421 | 91 | 42 | 5.0 | 8.0 | 0.00 | 0.00 | 0.00 | 27 | 1008.6 |
| 20260506151920 | 91 | 344 | 2.0 | 11.0 | 0.00 | 0.00 | 0.00 | 28 | 1008.5 |
| 20260506151416 | 91 | 359 | 9.0 | 11.0 | 0.00 | 0.00 | 0.00 | 27 | 1008.6 |
| 20260506150914 | 92 | 5 | 3.0 | 12.0 | 0.00 | 0.00 | 0.00 | 28 | 1008.5 |
| 20260506150410 | 92 | 30 | 4.0 | 15.0 | 0.00 | 0.00 | 0.00 | 26 | 1008.2 |
| 20260506145907 | 92 | 17 | 11.0 | 12.0 | 0.00 | 0.00 | 0.00 | 26 | 1008.3 |
| 20260506145403 | 92 | 7 | 6.0 | 13.0 | 0.00 | 0.00 | 0.00 | 26 | 1008.1 |
| 20260506144901 | 92 | 19 | 5.0 | 13.0 | 0.00 | 0.00 | 0.00 | 26 | 1008.0 |
| 20260506144357 | 92 | 43 | 6.0 | 12.0 | 0.00 | 0.00 | 0.00 | 26 | 1007.9 |
| 20260506143856 | 92 | 26 | 11.0 | 15.0 | 0.00 | 0.00 | 0.00 | 26 | 1007.9 |
| 20260506143352 | 92 | 6 | 6.0 | 13.0 | 0.00 | 0.00 | 0.00 | 27 | 1007.7 |
| 20260506142851 | 92 | 66 | 7.0 | 13.0 | 0.00 | 0.00 | 0.00 | 26 | 1007.9 |
| 20260506142348 | 92 | 24 | 7.0 | 16.0 | 0.00 | 0.00 | 0.00 | 26 | 1008.1 |
| 20260506141846 | 92 | 34 | 3.0 | 16.0 | 0.00 | 0.00 | 0.00 | 26 | 1007.7 |
| 20260506141344 | 92 | 65 | 4.0 | 13.0 | 0.00 | 0.00 | 0.00 | 26 | 1007.7 |
| 20260506140842 | 92 | 16 | 14.0 | 15.0 | 0.00 | 0.00 | 0.00 | 25 | 1007.8 |
| 20260506140339 | 92 | 14 | 1.0 | 14.0 | 0.00 | 0.00 | 0.00 | 26 | 1007.8 |
| 20260506135836 | 92 | 43 | 6.0 | 13.0 | 0.00 | 0.00 | 0.00 | 27 | 1008.0 |
| 20260506135332 | 93 | 12 | 4.0 | 15.0 | 0.00 | 0.00 | 0.00 | 28 | 1007.9 |
| 20260506134828 | 93 | 30 | 10.0 | 16.0 | 0.00 | 0.00 | 0.00 | 27 | 1007.7 |
| 20260506134325 | 93 | 71 | 6.0 | 14.0 | 0.00 | 0.00 | 0.00 | 27 | 1007.8 |
| 20260506133822 | 93 | 25 | 6.0 | 15.0 | 0.00 | 0.00 | 0.00 | 27 | 1007.9 |
| 20260506133319 | 93 | 82 | 4.0 | 12.0 | 0.00 | 0.00 | 0.00 | 27 | 1007.8 |
| 20260506132815 | 92 | 346 | 7.0 | 16.0 | 0.00 | 0.00 | 0.00 | 26 | 1008.0 |
| 20260506132313 | 93 | 20 | 7.0 | 12.0 | 0.00 | 0.00 | 0.00 | 26 | 1007.9 |
| 20260506131811 | 93 | 7 | 9.0 | 15.0 | 0.00 | 0.00 | 0.00 | 26 | 1007.7 |
| 20260506131307 | 93 | 22 | 6.0 | 15.0 | 0.00 | 0.00 | 0.00 | 28 | 1007.8 |
| 20260506130804 | 92 | 359 | 7.0 | 15.0 | 0.00 | 0.00 | 0.00 | 27 | 1007.9 |
| 20260506130300 | 92 | 20 | 10.0 | 18.0 | 0.00 | 0.00 | 0.00 | 27 | 1008.0 |
| 20260506125759 | 93 | 46 | 7.0 | 20.0 | 0.00 | 0.00 | 0.00 | 27 | 1008.1 |
| 20260506125256 | 92 | 9 | 5.0 | 17.0 | 0.00 | 0.00 | 0.00 | 27 | 1007.9 |
| 20260506124754 | 93 | 47 | 21.0 | 21.0 | 0.00 | 0.00 | 0.00 | 26 | 1007.9 |
| 20260506124251 | 93 | 42 | 11.0 | 11.0 | 0.00 | 0.00 | 0.00 | 26 | 1007.8 |
| 20260506123749 | 92 | 6 | 13.0 | 18.0 | 0.00 | 0.00 | 0.00 | 26 | 1007.8 |
| 20260506123248 | 92 | 88 | 7.0 | 15.0 | 0.00 | 0.00 | 0.00 | 28 | 1007.7 |
| 20260506122744 | 92 | 81 | 3.0 | 13.0 | 0.00 | 0.00 | 0.00 | 30 | 1007.8 |
| 20260506122241 | 92 | 24 | 7.0 | 10.0 | 0.00 | 0.00 | 0.00 | 30 | 1007.8 |
| 20260506121739 | 92 | 46 | 9.0 | 17.0 | 0.00 | 0.00 | 0.00 | 30 | 1008.0 |
| 20260506121236 | 92 | 51 | 9.0 | 13.0 | 0.00 | 0.00 | 0.00 | 30 | 1007.9 |
| 20260506120733 | 92 | 22 | 8.0 | 14.0 | 0.00 | 0.00 | 0.00 | 28 | 1007.9 |
| 20260506120231 | 91 | 43 | 10.0 | 13.0 | 0.00 | 0.00 | 0.00 | 32 | 1008.0 |
| 20260506115728 | 91 | 16 | 6.0 | 15.0 | 0.00 | 0.00 | 0.00 | 32 | 1008.1 |
| 20260506115227 | 91 | 19 | 9.0 | 15.0 | 0.00 | 0.00 | 0.00 | 33 | 1008.1 |
| 20260506114724 | 91 | 40 | 8.0 | 15.0 | 0.00 | 0.00 | 0.00 | 33 | 1007.9 |
| 20260506114221 | 92 | 48 | 13.0 | 15.0 | 0.00 | 0.00 | 0.00 | 30 | 1008.0 |
| 20260506113719 | 92 | 52 | 9.0 | 14.0 | 0.00 | 0.00 | 0.00 | 30 | 1008.1 |
| 20260506113217 | 93 | 3 | 6.0 | 16.0 | 0.00 | 0.00 | 0.00 | 27 | 1008.1 |
| 20260506112713 | 93 | 26 | 13.0 | 17.0 | 0.00 | 0.00 | 0.00 | 27 | 1008.1 |
| 20260506112211 | 92 | 29 | 15.0 | 18.0 | 0.00 | 0.00 | 0.00 | 26 | 1008.4 |